Weather History for Houlton, ME

Change the Weather History Date:

Wednesday, December 12, 2012

  Actual Average Record
Temperature  
Mean Temperature 13 °F 21 °F  
Max Temperature 26 °F 30 °F 58 °F (1950)
Min Temperature 0 °F 12 °F -18 °F (1977)
Degree Days  
Heating Degree Days 52 44  
Month to date heating degree days 459 500  
Since 1 July heating degree days 2328 2608  
Cooling Degree Days 0 0  
Month to date cooling degree days 0 0  
Year to date cooling degree days 277 191  
Moisture  
Dew Point 9 °F    
Average Humidity 81    
Maximum Humidity 88    
Minimum Humidity 73    
Precipitation  
Precipitation 0.00 in 0.12 in 2.25 in (2008)
Month to date precipitation 1.56 1.43  
Year to date precipitation 44.27 38.12  
Sea Level Pressure  
Sea Level Pressure 30.27 in    
Wind  
Wind Speed 1 mph (SW)    
Max Wind Speed 6 mph    
Max Gust Speed 10 mph    
Visibility 10 miles    
Events      
T = Trace of Precipitation, MM = Missing Value Source: NWS Daily Summary

Daily Weather History Graph

Daily Weather History Graph

Search for Another Location

Airport:

Trip Planner

Search our weather history database for the weather conditions in past years. The results will help you decide how hot, cold, wet, or windy it might be!

Date:

Astronomy

Dec. 12, 2012 Rise Set
Actual Time 7:04 AM EST 3:45 PM EST
Civil Twilight 6:30 AM EST 4:20 PM EST
Nautical Twilight 5:52 AM EST 4:58 PM EST
Astronomical Twilight 5:15 AM EST 5:34 PM EST
Moon 6:03 AM EST (12/12) 3:19 PM EST (12/12)
Length of Visible Light 9h 49m
Length of Day
8h 40m
Waning Crescent, 1% of the Moon is Illuminated
Dec 12
Waning Crescent
Dec 13
New
Dec 20
First Quarter
Dec 28
Full
Jan 4
Last Quarter

Hourly Weather History & Observations

Time (EST) Temp. Windchill Dew Point Humidity Pressure Visibility Wind Dir Wind Speed Gust Speed Precip Events Conditions
12:53 AM 12.0 °F 5.9 °F 6.1 °F 77% 30.12 in 10.0 mi NW 3.5 mph - N/A   Clear
1:53 AM 10.9 °F - 6.1 °F 81% 30.14 in 10.0 mi Calm Calm - N/A   Clear
2:53 AM 6.1 °F - 3.0 °F 87% 30.16 in 10.0 mi Calm Calm - N/A   Clear
3:53 AM 5.0 °F - 1.0 °F 84% 30.18 in 10.0 mi Calm Calm - N/A   Clear
4:53 AM 3.0 °F - -0.9 °F 84% 30.20 in 10.0 mi Calm Calm - N/A   Clear
5:53 AM -0.0 °F - -4.0 °F 83% 30.23 in 10.0 mi Calm Calm - N/A   Clear
6:53 AM 1.0 °F - -2.9 °F 83% 30.26 in 10.0 mi Calm Calm - N/A   Clear
7:53 AM 1.0 °F - -4.0 °F 79% 30.27 in 10.0 mi Calm Calm - N/A   Clear
8:53 AM 10.9 °F - 6.1 °F 81% 30.29 in 10.0 mi Calm Calm - N/A   Clear
9:53 AM 17.1 °F - 10.9 °F 77% 30.30 in 10.0 mi Calm Calm - N/A   Clear
10:53 AM 19.0 °F - 12.9 °F 77% 30.28 in 10.0 mi Calm Calm - N/A   Clear
11:51 AM 21.2 °F - 15.8 °F 80% 30.23 in 10.0 mi Calm Calm - N/A   Mostly Cloudy
11:53 AM 21.0 °F 16.2 °F 16.0 °F 81% 30.27 in 10.0 mi SW 3.5 mph - N/A   Mostly Cloudy
12:16 PM 21.2 °F - 15.8 °F 80% 30.23 in 10.0 mi Calm Calm - N/A   Mostly Cloudy
12:25 PM 23.0 °F - 17.6 °F 80% 30.23 in 10.0 mi Calm Calm - N/A   Scattered Clouds
12:34 PM 21.2 °F - 17.6 °F 86% 30.23 in 10.0 mi Calm Calm - N/A   Mostly Cloudy
12:53 PM 23.0 °F - 17.1 °F 78% 30.27 in 10.0 mi Calm Calm - N/A   Mostly Cloudy
1:33 PM 24.8 °F - 17.6 °F 74% 30.23 in 10.0 mi Calm Calm - N/A   Scattered Clouds
1:53 PM 25.0 °F - 18.0 °F 75% 30.26 in 10.0 mi Calm Calm - N/A   Clear
2:34 PM 24.8 °F - 19.4 °F 80% 30.24 in 10.0 mi Calm Calm - N/A   Mostly Cloudy
2:53 PM 25.0 °F - 18.0 °F 75% 30.28 in 10.0 mi Calm Calm - N/A   Mostly Cloudy
3:11 PM 24.8 °F - 19.4 °F 80% 30.25 in 10.0 mi Calm Calm - N/A   Partly Cloudy
3:53 PM 19.9 °F - 16.0 °F 85% 30.30 in 10.0 mi Calm Calm - N/A   Clear
4:53 PM 16.0 °F - 12.0 °F 84% 30.33 in 10.0 mi Calm Calm - N/A   Clear
5:53 PM 10.9 °F - 7.0 °F 84% 30.33 in 10.0 mi Calm Calm - N/A   Clear
6:53 PM 8.1 °F 1.4 °F 3.0 °F 80% 30.34 in 9.0 mi South 3.5 mph - N/A   Clear
7:53 PM 7.0 °F - 3.9 °F 87% 30.35 in 9.0 mi Calm Calm - N/A   Partly Cloudy
8:53 PM 7.0 °F - 3.0 °F 84% 30.35 in 10.0 mi Calm Calm - N/A   Scattered Clouds
9:53 PM 10.9 °F 4.7 °F 7.0 °F 84% 30.34 in 9.0 mi SSW 3.5 mph - N/A   Overcast
10:35 PM 10.4 °F - 6.8 °F 85% 30.31 in 10.0 mi Calm Calm - N/A   Scattered Clouds
10:53 PM 10.0 °F - 5.0 °F 80% 30.35 in 10.0 mi Calm Calm - N/A   Clear
11:10 PM 10.4 °F - 6.8 °F 85% 30.31 in 10.0 mi Calm Calm - N/A   Mostly Cloudy
11:53 PM 15.1 °F - 10.9 °F 84% 30.34 in 10.0 mi Calm Calm - N/A   Overcast